Morgantown, WV

8:38 PM EST on January 20, 2017 (GMT -0500)
Morgantown Municipal-Hart

Weather History for KMGW - January, 2004

Change the Weather History Date:

Saturday, January 17, 2004

  Actual Average Record
Temperature  
Mean Temperature 24 °F 31 °F  
Max Temperature 37 °F 39 °F 66 °F (1990)
Min Temperature 10 °F 24 °F -16 °F (1982)
Degree Days  
Heating Degree Days 42 34  
Month to date heating degree days 575  
Since 1 July heating degree days 2559  
Cooling Degree Days 0 0  
Month to date cooling degree days 0  
Year to date cooling degree days 0  
Moisture  
Dew Point 20 °F    
Average Humidity 83    
Maximum Humidity 100    
Minimum Humidity 50    
Precipitation  
Precipitation 0.35 in 0.09 in 0.64 in (1952)
Month to date precipitation 1.53  
Year to date precipitation 1.53  
Sea Level Pressure  
Sea Level Pressure 30.01 in    
Wind  
Wind Speed 2 mph (South)    
Max Wind Speed 9 mph    
Max Gust Speed -    
Visibility 6 miles    
Events Rain , Snow    
T = Trace of Precipitation, MM = Missing Value Source: NWS Daily Summary

Daily Weather History Graph

Daily Weather History Graph

Search for Another Location

Airport or City:

Trip Planner

Search our weather history database for the weather conditions in past years. The results will help you decide how hot, cold, wet, or windy it might be!

Date:

Astronomy

Jan. 17, 2004 Rise Set
Actual Time 7:38 AM EST 5:21 PM EST
Civil Twilight 7:08 AM EST 5:50 PM EST
Nautical Twilight 6:35 AM EST 6:24 PM EST
Astronomical Twilight 6:03 AM EST 6:56 PM EST
Moon 3:12 AM EST (1/17) 1:09 PM EST (1/17)
Length of Visible Light 10h 42m
Length of Day
9h 43m
Waning Crescent, 23% of the Moon is Illuminated
Jan 17
Waning Crescent
Jan 21
New
Jan 29
First Quarter
Feb 6
Full
Feb 13
Last Quarter

Hourly Weather History & Observations

Time (EST) Temp. Windchill Dew Point Humidity Pressure Visibility Wind Dir Wind Speed Gust Speed Precip Events Conditions
12:53 AM 10.9 °F - 6.1 °F 81% 30.32 in 10.0 mi Calm Calm - N/A   Clear
1:53 AM 10.9 °F - 6.1 °F 81% 30.30 in 10.0 mi Calm Calm - N/A   Clear
2:53 AM 10.0 °F - 6.1 °F 84% 30.29 in 10.0 mi Calm Calm - N/A   Clear
3:53 AM 10.0 °F - 6.1 °F 84% 30.28 in 10.0 mi Calm Calm - N/A   Clear
4:53 AM 10.0 °F - 5.0 °F 80% 30.27 in 10.0 mi Calm Calm - N/A   Clear
5:53 AM 10.9 °F - 5.0 °F 77% 30.26 in 10.0 mi Calm Calm - N/A   Clear
6:53 AM 10.9 °F - 6.1 °F 81% 30.25 in 10.0 mi Calm Calm - N/A   Mostly Cloudy
7:53 AM 12.9 °F - 7.0 °F 77% 30.24 in 10.0 mi Calm Calm - N/A   Clear
8:53 AM 16.0 °F 10.4 °F 7.0 °F 68% 30.22 in 10.0 mi ENE 3.5 mph - N/A   Overcast
9:53 AM 19.0 °F 13.9 °F 8.1 °F 62% 30.21 in 10.0 mi North 3.5 mph - N/A   Overcast
10:53 AM 19.9 °F - 8.1 °F 60% 30.19 in 10.0 mi Calm Calm - N/A   Overcast
11:53 AM 23.0 °F - 10.0 °F 58% 30.14 in 10.0 mi Calm Calm - N/A   Overcast
12:15 PM 24.8 °F - 8.6 °F 50% 30.07 in 9.0 mi Calm Calm - 0.00 in Snow Light Snow
12:30 PM 24.8 °F 20.5 °F 12.2 °F 59% 30.07 in 1.8 mi Variable 3.5 mph - 0.00 in Snow Light Snow
12:40 PM 23.0 °F 17.0 °F 15.8 °F 74% 30.06 in 1.0 mi North 4.6 mph - 0.00 in Snow Light Snow
12:53 PM 23.0 °F 15.8 °F 17.1 °F 78% 30.11 in 3.0 mi ENE 5.8 mph - 0.00 in Snow Light Snow
1:05 PM 23.0 °F 17.0 °F 17.6 °F 80% 30.03 in 3.0 mi ENE 4.6 mph - 0.00 in Snow Light Snow
1:26 PM 24.8 °F - 19.4 °F 80% 30.02 in 1.8 mi Calm Calm - 0.00 in Snow Light Snow
1:36 PM 23.0 °F - 19.4 °F 86% 30.01 in 1.0 mi Calm Calm - 0.00 in Snow Light Snow
1:53 PM 23.0 °F - 19.9 °F 88% 30.07 in 1.0 mi Calm Calm - 0.01 in Snow Light Snow
2:21 PM 24.8 °F - 21.2 °F 86% 29.98 in 1.5 mi Calm Calm - 0.01 in Snow Light Snow
2:30 PM 24.8 °F - 21.2 °F 86% 29.97 in 2.5 mi Calm Calm - 0.02 in Snow Light Snow
2:44 PM 24.8 °F - 23.0 °F 93% 29.96 in 3.0 mi Calm Calm - 0.02 in Snow Light Snow
2:53 PM 25.0 °F - 23.0 °F 92% 30.02 in 1.8 mi Calm Calm - 0.03 in Snow Light Snow
3:00 PM 24.8 °F - 23.0 °F 93% 29.96 in 1.2 mi Calm Calm - 0.00 in Snow Light Snow
3:40 PM 26.6 °F - 24.8 °F 93% 29.94 in 2.5 mi Calm Calm - 0.03 in Snow Light Snow
3:53 PM 27.0 °F - 25.0 °F 92% 29.99 in 2.5 mi Calm Calm - 0.04 in Snow Light Snow
4:12 PM 26.6 °F - 26.6 °F 100% 29.93 in 3.0 mi Calm Calm - 0.01 in Rain Light Freezing Rain
4:28 PM 28.4 °F - 26.6 °F 93% 29.91 in 2.5 mi Calm Calm - 0.01 in Rain Light Freezing Rain
4:38 PM 28.4 °F - 26.6 °F 93% 29.90 in 4.0 mi Calm Calm - 0.01 in Rain Light Freezing Rain
4:53 PM 28.0 °F - 27.0 °F 96% 29.96 in 3.0 mi Calm Calm - 0.01 in Rain Light Freezing Rain
5:37 PM 28.4 °F 24.6 °F 28.4 °F 100% 29.89 in 2.5 mi Variable 3.5 mph - 0.01 in Rain Light Freezing Rain
5:53 PM 28.9 °F 25.2 °F 28.0 °F 96% 29.94 in 3.0 mi South 3.5 mph - 0.02 in Rain Light Freezing Rain
6:05 PM 30.2 °F 26.7 °F 28.4 °F 93% 29.88 in 4.0 mi SSW 3.5 mph - 0.01 in Rain Light Freezing Rain
6:53 PM 32.0 °F - 28.0 °F 85% 29.91 in 4.0 mi Calm Calm - 0.03 in Rain Light Freezing Rain
7:18 PM 33.8 °F 29.6 °F 30.2 °F 87% 29.86 in 4.0 mi South 4.6 mph - 0.02 in Rain Light Freezing Rain
7:34 PM 33.8 °F 28.6 °F 30.2 °F 87% 29.85 in 5.0 mi SSW 5.8 mph - 0.03 in Rain Light Rain
7:44 PM 33.8 °F 27.7 °F 30.2 °F 87% 29.85 in 6.0 mi SSW 6.9 mph - 0.03 in Rain Light Rain
7:53 PM 34.0 °F 28.0 °F 30.9 °F 89% 29.90 in 6.0 mi SSW 6.9 mph - 0.04 in Rain Light Rain
8:53 PM 35.1 °F 30.1 °F 30.9 °F 85% 29.87 in 7.0 mi South 5.8 mph - 0.04 in Rain Light Rain
9:41 PM 35.6 °F 29.9 °F 30.2 °F 81% 29.80 in 7.0 mi SSW 6.9 mph - 0.04 in Rain Light Rain
9:53 PM 36.0 °F 29.0 °F 30.9 °F 82% 29.84 in 7.0 mi South 9.2 mph - 0.05 in Rain Light Rain
10:30 PM 35.6 °F 29.2 °F 30.2 °F 81% 29.78 in 7.0 mi South 8.1 mph - 0.04 in Rain Light Rain
10:44 PM 35.6 °F 29.2 °F 30.2 °F 81% 29.77 in 7.0 mi South 8.1 mph - 0.04 in Rain Light Rain
10:53 PM 37.0 °F 31.6 °F 30.9 °F 79% 29.81 in 7.0 mi South 6.9 mph - 0.05 in Rain Light Rain
11:05 PM 35.6 °F 29.9 °F 30.2 °F 81% 29.76 in 5.0 mi Variable 6.9 mph - 0.01 in Rain Light Rain
11:53 PM 37.0 °F 32.4 °F 30.9 °F 79% 29.78 in 9.0 mi SSW 5.8 mph - 0.03 in Rain Light Rain